Cozumel (Civ/Mil, Mexico

11:35 AM on February 27, 2017 (GMT +0000)
Cozumel International

Weather History for MMCZ - September, 2012

Change the Weather History Date:

Sunday, September 23, 2012

  Actual Average Record
Temperature  
Mean Temperature 76 °F -  
Max Temperature 84 °F 88 °F 93 °F (1996)
Min Temperature 69 °F 75 °F 35 °F (2002)
Cooling Degree Days 12    
Growing Degree Days 26 (Base 50)    
Moisture  
Dew Point 72 °F    
Average Humidity 90    
Maximum Humidity 100    
Minimum Humidity 70    
Precipitation  
Precipitation 0.00 in - - ()
Sea Level Pressure  
Sea Level Pressure 30.00 in    
Wind  
Wind Speed 3 mph ()    
Max Wind Speed 23 mph    
Max Gust Speed 23 mph    
Visibility 7.0 miles    
Events      
Averages and records for this station are not official NWS values.
T = Trace of Precipitation, MM = Missing Value Source: Averaged Metar Reports

Daily Weather History Graph

Daily Weather History Graph

Search for Another Location

Airport or City:

Trip Planner

Search our weather history database for the weather conditions in past years. The results will help you decide how hot, cold, wet, or windy it might be!

Date:

Astronomy

Sep. 23, 2012 Rise Set
Actual Time 6:36 AM CDT 6:42 PM CDT
Civil Twilight 6:14 AM CDT 7:04 PM CDT
Nautical Twilight 5:49 AM CDT 7:30 PM CDT
Astronomical Twilight 5:23 AM CDT 7:55 PM CDT
Moon 2:04 PM CDT (9/23) 12:30 AM CDT (9/23)
Length of Visible Light 12h 49m
Length of Day
12h 05m
First Quarter, 60% of the Moon is Illuminated
Sep 23
First Quarter
Sep 29
Full
Oct 8
Last Quarter
Oct 15
New
Oct 21
First Quarter

Hourly Weather History & Observations

Time (CDT) Temp. Heat Index Dew Point Humidity Pressure Visibility Wind Dir Wind Speed Gust Speed Precip Events Conditions
12:40 AM 69.8 °F - 69.8 °F 100% 29.97 in 6.0 mi Calm Calm - N/A   Overcast
1:40 AM 69.8 °F - 69.8 °F 100% 29.97 in 6.0 mi Calm Calm - N/A   Overcast
2:40 AM 69.8 °F - 69.8 °F 100% 29.96 in 6.0 mi Calm Calm - N/A   Overcast
3:40 AM 69.8 °F - 69.8 °F 100% 29.99 in 6.0 mi Calm Calm - N/A   Overcast
4:40 AM 71.6 °F - 71.6 °F 100% 29.96 in 6.0 mi NE 3.5 mph - N/A   Overcast
5:41 AM 71.6 °F - 71.6 °F 100% 29.97 in 6.0 mi Calm Calm - N/A   Overcast
6:40 AM 71.6 °F - 71.6 °F 100% 29.93 in 7.0 mi Calm Calm - N/A   Mostly Cloudy
7:48 AM 73.4 °F - 73.4 °F 100% 30.00 in 7.0 mi East 4.6 mph - N/A   Mostly Cloudy
8:42 AM 77.0 °F - 75.2 °F 94% 30.02 in 7.0 mi ENE 6.9 mph - N/A   Mostly Cloudy
9:40 AM 78.8 °F - 75.2 °F 89% 30.05 in 7.0 mi East 6.9 mph - N/A   Mostly Cloudy
10:40 AM 80.6 °F 86.2 °F 75.2 °F 84% 30.03 in 7.0 mi ENE 9.2 mph - N/A   Mostly Cloudy
11:46 AM 82.4 °F 89.5 °F 75.2 °F 79% 30.03 in 8.0 mi ESE 23.0 mph - N/A   Mostly Cloudy
12:42 PM 84.2 °F 90.9 °F 73.4 °F 70% 30.00 in 8.0 mi ESE 11.5 mph 23.0 mph N/A   Mostly Cloudy
1:43 PM 82.4 °F 88.2 °F 73.4 °F 74% 29.98 in 8.0 mi ESE 13.8 mph - N/A   Mostly Cloudy
2:55 PM 80.6 °F 84.6 °F 71.6 °F 74% 29.95 in 8.0 mi East 9.2 mph - N/A   Mostly Cloudy
3:49 PM 80.6 °F 84.6 °F 71.6 °F 74% 29.98 in 8.0 mi East 6.9 mph - N/A   Mostly Cloudy
4:41 PM 78.8 °F - 73.4 °F 83% 29.96 in 8.0 mi ENE 4.6 mph - N/A   Overcast
5:52 PM 77.0 °F - 73.4 °F 89% 29.98 in 8.0 mi Calm Calm - N/A   Overcast
6:42 PM 77.0 °F - 73.4 °F 89% 29.97 in 7.0 mi East 3.5 mph - N/A   Mostly Cloudy
7:51 PM 75.2 °F - 71.6 °F 89% 30.01 in 7.0 mi Calm Calm - N/A   Mostly Cloudy
8:47 PM 73.4 °F - 71.6 °F 94% 30.04 in 7.0 mi Calm Calm - N/A   Mostly Cloudy
9:42 PM 73.4 °F - 71.6 °F 94% 30.08 in 7.0 mi Calm Calm - N/A   Mostly Cloudy
10:40 PM 73.4 °F - 71.6 °F 94% 30.05 in 7.0 mi Calm Calm - N/A   Scattered Clouds
11:40 PM 73.4 °F - 73.4 °F 100% 30.04 in 7.0 mi Calm Calm - N/A   Scattered Clouds